| time (UTC) | temp F | wind direction | speed MPH | gust MPH | rain 1hr in | rain 24hr in | rain mn in | humidity % | barometer mb |
| 20260510123533 | 73 | 325 | 0.0 | 2.0 | 0.00 | 0.00 | 0.00 | 14 | 1007.3 |
| 20260510123032 | 73 | 325 | 0.0 | 2.0 | 0.00 | 0.00 | 0.00 | 14 | 1007.3 |
| 20260510122532 | 73 | 325 | 0.0 | 1.0 | 0.00 | 0.00 | 0.00 | 14 | 1007.2 |
| 20260510122028 | 74 | 325 | 0.0 | 1.0 | 0.00 | 0.00 | 0.00 | 14 | 1007.2 |
| 20260510121528 | 74 | 325 | 0.0 | 2.0 | 0.00 | 0.00 | 0.00 | 14 | 1007.2 |
| 20260510121029 | 74 | 325 | 0.0 | 2.0 | 0.00 | 0.00 | 0.00 | 14 | 1007.2 |
| 20260510120526 | 74 | 325 | 0.0 | 2.0 | 0.00 | 0.00 | 0.00 | 14 | 1007.1 |
| 20260510120030 | 74 | 325 | 0.0 | 1.0 | 0.00 | 0.00 | 0.00 | 14 | 1007.1 |
| 20260510115526 | 74 | 325 | 0.0 | 2.0 | 0.00 | 0.00 | 0.00 | 14 | 1007.0 |
| 20260510115026 | 74 | 325 | 0.0 | 3.0 | 0.00 | 0.00 | 0.00 | 14 | 1007.0 |
| 20260510114525 | 74 | 325 | 1.0 | 3.0 | 0.00 | 0.00 | 0.00 | 14 | 1007.0 |
| 20260510114023 | 75 | 325 | 0.0 | 2.0 | 0.00 | 0.00 | 0.00 | 14 | 1007.0 |
| 20260510113524 | 75 | 325 | 0.0 | 1.0 | 0.00 | 0.00 | 0.00 | 13 | 1007.0 |
| 20260510113024 | 75 | 325 | 0.0 | 1.0 | 0.00 | 0.00 | 0.00 | 13 | 1006.9 |
| 20260510112523 | 75 | 325 | 0.0 | 3.0 | 0.00 | 0.00 | 0.00 | 14 | 1006.7 |
| 20260510112022 | 74 | 325 | 0.0 | 3.0 | 0.00 | 0.00 | 0.00 | 14 | 1006.8 |
| 20260510111520 | 74 | 325 | 0.0 | 2.0 | 0.00 | 0.00 | 0.00 | 14 | 1006.8 |
| 20260510111019 | 75 | 325 | 0.0 | 2.0 | 0.00 | 0.00 | 0.00 | 14 | 1006.7 |
| 20260510110518 | 75 | 325 | 0.0 | 3.0 | 0.00 | 0.00 | 0.00 | 13 | 1006.6 |
| 20260510110019 | 75 | 325 | 1.0 | 3.0 | 0.00 | 0.00 | 0.00 | 13 | 1006.7 |
| 20260510105515 | 76 | 325 | 0.0 | 3.0 | 0.00 | 0.00 | 0.00 | 13 | 1006.6 |
| 20260510105015 | 76 | 325 | 0.0 | 3.0 | 0.00 | 0.00 | 0.00 | 13 | 1006.6 |
| 20260510104515 | 76 | 325 | 1.0 | 3.0 | 0.00 | 0.00 | 0.00 | 13 | 1006.6 |
| 20260510104013 | 76 | 326 | 0.0 | 2.0 | 0.00 | 0.00 | 0.00 | 13 | 1006.5 |
| 20260510103511 | 77 | 326 | 0.0 | 2.0 | 0.00 | 0.00 | 0.00 | 13 | 1006.5 |
| 20260510103010 | 77 | 326 | 0.0 | 2.0 | 0.00 | 0.00 | 0.00 | 12 | 1006.5 |
| 20260510102509 | 77 | 326 | 1.0 | 3.0 | 0.00 | 0.00 | 0.00 | 12 | 1006.3 |
| 20260510102009 | 78 | 326 | 1.0 | 3.0 | 0.00 | 0.00 | 0.00 | 13 | 1006.2 |
| 20260510101508 | 78 | 326 | 1.0 | 3.0 | 0.00 | 0.00 | 0.00 | 12 | 1006.2 |
| 20260510101005 | 79 | 331 | 0.0 | 4.0 | 0.00 | 0.00 | 0.00 | 12 | 1006.2 |
| 20260510100504 | 80 | 331 | 0.0 | 4.0 | 0.00 | 0.00 | 0.00 | 11 | 1006.1 |
| 20260510100007 | 80 | 329 | 0.0 | 3.0 | 0.00 | 0.00 | 0.00 | 11 | 1006.0 |
| 20260510095503 | 81 | 329 | 1.0 | 3.0 | 0.00 | 0.00 | 0.00 | 11 | 1005.9 |
| 20260510095001 | 81 | 329 | 1.0 | 3.0 | 0.00 | 0.00 | 0.00 | 11 | 1005.9 |
| 20260510094504 | 81 | 329 | 0.0 | 3.0 | 0.00 | 0.00 | 0.00 | 10 | 1005.9 |
| 20260510094002 | 81 | 329 | 1.0 | 3.0 | 0.00 | 0.00 | 0.00 | 10 | 1005.9 |
| 20260510093501 | 81 | 329 | 1.0 | 3.0 | 0.00 | 0.00 | 0.00 | 10 | 1005.9 |
| 20260510093100 | 81 | 329 | 1.0 | 3.0 | 0.00 | 0.00 | 0.00 | 10 | 1005.9 |
| 20260510092600 | 81 | 330 | 0.0 | 3.0 | 0.00 | 0.00 | 0.00 | 10 | 1005.8 |
| 20260510092100 | 81 | 330 | 0.0 | 3.0 | 0.00 | 0.00 | 0.00 | 10 | 1005.7 |
| 20260510091601 | 81 | 330 | 0.0 | 3.0 | 0.00 | 0.00 | 0.00 | 10 | 1005.7 |
| 20260510091058 | 81 | 330 | 1.0 | 5.0 | 0.00 | 0.00 | 0.00 | 10 | 1005.7 |
| 20260510090557 | 81 | 355 | 0.0 | 4.0 | 0.00 | 0.00 | 0.00 | 10 | 1005.5 |
| 20260510090100 | 81 | 355 | 1.0 | 4.0 | 0.00 | 0.00 | 0.00 | 11 | 1005.5 |
| 20260510085559 | 81 | 355 | 1.0 | 4.0 | 0.00 | 0.00 | 0.00 | 11 | 1005.5 |
| 20260510085055 | 81 | 355 | 0.0 | 5.0 | 0.00 | 0.00 | 0.00 | 11 | 1005.4 |
| 20260510084558 | 81 | 360 | 2.0 | 8.0 | 0.00 | 0.00 | 0.00 | 11 | 1005.3 |
| 20260510084053 | 81 | 11 | 2.0 | 4.0 | 0.00 | 0.00 | 0.00 | 11 | 1005.4 |
| 20260510083553 | 82 | 5 | 1.0 | 6.0 | 0.00 | 0.00 | 0.00 | 10 | 1005.3 |
| 20260510083056 | 82 | 5 | 2.0 | 6.0 | 0.00 | 0.00 | 0.00 | 10 | 1005.2 |
| 20260510082552 | 82 | 331 | 2.0 | 5.0 | 0.00 | 0.00 | 0.00 | 10 | 1005.2 |
| 20260510082051 | 82 | 328 | 1.0 | 5.0 | 0.00 | 0.00 | 0.00 | 11 | 1005.3 |
| 20260510081553 | 82 | 325 | 2.0 | 5.0 | 0.00 | 0.00 | 0.00 | 11 | 1005.1 |
| 20260510081051 | 81 | 325 | 2.0 | 5.0 | 0.00 | 0.00 | 0.00 | 11 | 1005.2 |
| 20260510080552 | 82 | 336 | 2.0 | 5.0 | 0.00 | 0.00 | 0.00 | 11 | 1005.2 |
| 20260510080055 | 81 | 328 | 1.0 | 4.0 | 0.00 | 0.00 | 0.00 | 12 | 1005.2 |
| 20260510075550 | 81 | 328 | 1.0 | 4.0 | 0.00 | 0.00 | 0.00 | 12 | 1005.2 |
| 20260510075049 | 81 | 328 | 1.0 | 3.0 | 0.00 | 0.00 | 0.00 | 12 | 1005.2 |
| 20260510074547 | 82 | 328 | 2.0 | 4.0 | 0.00 | 0.00 | 0.00 | 11 | 1005.2 |
| 20260510074046 | 82 | 328 | 1.0 | 4.0 | 0.00 | 0.00 | 0.00 | 11 | 1005.2 |
| 20260510073545 | 83 | 328 | 1.0 | 4.0 | 0.00 | 0.00 | 0.00 | 11 | 1005.2 |
| 20260510073102 | 83 | 328 | 1.0 | 4.0 | 0.00 | 0.00 | 0.00 | 11 | 1005.2 |
| 20260510072544 | 83 | 328 | 1.0 | 4.0 | 0.00 | 0.00 | 0.00 | 11 | 1005.2 |
| 20260510072044 | 83 | 329 | 0.0 | 5.0 | 0.00 | 0.00 | 0.00 | 11 | 1005.2 |
| 20260510071551 | 83 | 329 | 1.0 | 5.0 | 0.00 | 0.00 | 0.00 | 11 | 1005.2 |
| 20260510071042 | 83 | 329 | 0.0 | 5.0 | 0.00 | 0.00 | 0.00 | 11 | 1005.2 |
| 20260510070544 | 84 | 333 | 1.0 | 6.0 | 0.00 | 0.00 | 0.00 | 11 | 1005.2 |
| 20260510070040 | 84 | 355 | 2.0 | 5.0 | 0.00 | 0.00 | 0.00 | 11 | 1005.1 |
| 20260510065542 | 84 | 350 | 2.0 | 5.0 | 0.00 | 0.00 | 0.00 | 11 | 1005.1 |
| 20260510065040 | 85 | 355 | 1.0 | 9.0 | 0.00 | 0.00 | 0.00 | 11 | 1005.0 |
| 20260510064548 | 85 | 332 | 4.0 | 9.0 | 0.00 | 0.00 | 0.00 | 10 | 1004.9 |
| 20260510064039 | 84 | 336 | 2.0 | 8.0 | 0.00 | 0.00 | 0.00 | 11 | 1004.9 |
| 20260510063539 | 85 | 338 | 2.0 | 6.0 | 0.00 | 0.00 | 0.00 | 11 | 1004.9 |
| 20260510063043 | 85 | 322 | 3.0 | 10.0 | 0.00 | 0.00 | 0.00 | 10 | 1004.7 |
| 20260510062539 | 86 | 9 | 3.0 | 10.0 | 0.00 | 0.00 | 0.00 | 10 | 1004.6 |
| 20260510062042 | 86 | 306 | 3.0 | 8.0 | 0.00 | 0.00 | 0.00 | 10 | 1004.5 |
| 20260510061539 | 86 | 323 | 2.0 | 5.0 | 0.00 | 0.00 | 0.00 | 10 | 1004.5 |
| 20260510061041 | 86 | 306 | 0.0 | 10.0 | 0.00 | 0.00 | 0.00 | 10 | 1004.4 |
| 20260510060538 | 86 | 308 | 4.0 | 10.0 | 0.00 | 0.00 | 0.00 | 10 | 1004.3 |
| 20260510060038 | 85 | 315 | 2.0 | 5.0 | 0.00 | 0.00 | 0.00 | 10 | 1004.4 |
| 20260510055538 | 86 | 319 | 1.0 | 6.0 | 0.00 | 0.00 | 0.00 | 10 | 1004.4 |
| 20260510055041 | 85 | 321 | 2.0 | 6.0 | 0.00 | 0.00 | 0.00 | 10 | 1004.3 |
| 20260510054538 | 86 | 323 | 1.0 | 8.0 | 0.00 | 0.00 | 0.00 | 10 | 1004.3 |
| 20260510054037 | 86 | 327 | 1.0 | 4.0 | 0.00 | 0.00 | 0.00 | 11 | 1004.3 |
| 20260510053538 | 86 | 325 | 1.0 | 6.0 | 0.00 | 0.00 | 0.00 | 11 | 1004.3 |
| 20260510053038 | 86 | 323 | 1.0 | 6.0 | 0.00 | 0.00 | 0.00 | 11 | 1004.3 |
| 20260510052537 | 86 | 327 | 2.0 | 8.0 | 0.00 | 0.00 | 0.00 | 11 | 1004.2 |
| 20260510052040 | 87 | 313 | 2.0 | 10.0 | 0.00 | 0.00 | 0.00 | 11 | 1004.1 |
| 20260510051543 | 86 | 311 | 4.0 | 10.0 | 0.00 | 0.00 | 0.00 | 11 | 1004.2 |
| 20260510051037 | 86 | 304 | 4.0 | 7.0 | 0.00 | 0.00 | 0.00 | 11 | 1004.2 |
| 20260510050539 | 85 | 306 | 3.0 | 5.0 | 0.00 | 0.00 | 0.00 | 11 | 1004.2 |
| 20260510050037 | 86 | 311 | 2.0 | 9.0 | 0.00 | 0.00 | 0.00 | 11 | 1004.2 |
| 20260510045536 | 85 | 309 | 1.0 | 9.0 | 0.00 | 0.00 | 0.00 | 11 | 1004.1 |
| 20260510045040 | 85 | 265 | 1.0 | 4.0 | 0.00 | 0.00 | 0.00 | 11 | 1004.1 |
| 20260510044545 | 84 | 265 | 0.0 | 3.0 | 0.00 | 0.00 | 0.00 | 11 | 1004.0 |
| 20260510044035 | 84 | 265 | 0.0 | 3.0 | 0.00 | 0.00 | 0.00 | 11 | 1004.0 |
| 20260510043536 | 84 | 265 | 0.0 | 2.0 | 0.00 | 0.00 | 0.00 | 11 | 1004.0 |
| 20260510043036 | 84 | 265 | 0.0 | 3.0 | 0.00 | 0.00 | 0.00 | 11 | 1003.9 |
| 20260510042537 | 84 | 265 | 1.0 | 3.0 | 0.00 | 0.00 | 0.00 | 11 | 1003.8 |
| 20260510042036 | 85 | 265 | 0.0 | 2.0 | 0.00 | 0.00 | 0.00 | 11 | 1003.7 |
| 20260510041535 | 85 | 265 | 0.0 | 2.0 | 0.00 | 0.00 | 0.00 | 11 | 1003.8 |
| 20260510041035 | 85 | 265 | 0.0 | 3.0 | 0.00 | 0.00 | 0.00 | 11 | 1003.7 |
| 20260510040536 | 85 | 265 | 0.0 | 3.0 | 0.00 | 0.00 | 0.00 | 11 | 1003.7 |
| 20260510040034 | 85 | 265 | 0.0 | 6.0 | 0.00 | 0.00 | 0.00 | 11 | 1003.6 |
| 20260510035535 | 86 | 265 | 2.0 | 6.0 | 0.00 | 0.00 | 0.00 | 11 | 1003.6 |
| 20260510035035 | 86 | 265 | 1.0 | 4.0 | 0.00 | 0.00 | 0.00 | 10 | 1003.4 |
| 20260510034536 | 86 | 266 | 0.0 | 4.0 | 0.00 | 0.00 | 0.00 | 10 | 1003.4 |
| 20260510034034 | 86 | 265 | 0.0 | 6.0 | 0.00 | 0.00 | 0.00 | 10 | 1003.5 |
| 20260510033533 | 86 | 265 | 2.0 | 7.0 | 0.00 | 0.00 | 0.00 | 10 | 1003.3 |
| 20260510033033 | 87 | 265 | 1.0 | 9.0 | 0.00 | 0.00 | 0.00 | 10 | 1003.3 |
| 20260510032536 | 87 | 268 | 2.0 | 7.0 | 0.00 | 0.00 | 0.00 | 10 | 1003.2 |
| 20260510032036 | 87 | 265 | 3.0 | 7.0 | 0.00 | 0.00 | 0.00 | 10 | 1003.0 |
| 20260510031534 | 87 | 250 | 2.0 | 7.0 | 0.00 | 0.00 | 0.00 | 10 | 1003.0 |
| 20260510031032 | 87 | 250 | 2.0 | 8.0 | 0.00 | 0.00 | 0.00 | 10 | 1002.8 |
| 20260510030531 | 88 | 243 | 2.0 | 8.0 | 0.00 | 0.00 | 0.00 | 10 | 1002.8 |
| 20260510030032 | 88 | 254 | 3.0 | 9.0 | 0.00 | 0.00 | 0.00 | 10 | 1002.7 |
| 20260510025531 | 88 | 265 | 3.0 | 9.0 | 0.00 | 0.00 | 0.00 | 10 | 1002.7 |
| 20260510025035 | 88 | 228 | 2.0 | 7.0 | 0.00 | 0.00 | 0.00 | 10 | 1002.6 |
| 20260510024532 | 88 | 234 | 3.0 | 8.0 | 0.00 | 0.00 | 0.00 | 10 | 1002.6 |
| 20260510024032 | 88 | 248 | 4.0 | 8.0 | 0.00 | 0.00 | 0.00 | 10 | 1002.5 |
| 20260510023530 | 89 | 254 | 3.0 | 8.0 | 0.00 | 0.00 | 0.00 | 10 | 1002.5 |
| 20260510023033 | 89 | 245 | 3.0 | 8.0 | 0.00 | 0.00 | 0.00 | 10 | 1002.6 |
| 20260510022533 | 89 | 260 | 3.0 | 7.0 | 0.00 | 0.00 | 0.00 | 10 | 1002.5 |
| 20260510022032 | 89 | 253 | 1.0 | 6.0 | 0.00 | 0.00 | 0.00 | 10 | 1002.5 |
| 20260510021537 | 90 | 254 | 2.0 | 6.0 | 0.00 | 0.00 | 0.00 | 10 | 1002.4 |
| 20260510021030 | 90 | 230 | 3.0 | 6.0 | 0.00 | 0.00 | 0.00 | 10 | 1002.5 |
| 20260510020530 | 90 | 194 | 1.0 | 4.0 | 0.00 | 0.00 | 0.00 | 10 | 1002.4 |
| 20260510020030 | 90 | 180 | 0.0 | 4.0 | 0.00 | 0.00 | 0.00 | 10 | 1002.3 |
| 20260510015529 | 90 | 180 | 2.0 | 5.0 | 0.00 | 0.00 | 0.00 | 10 | 1002.3 |
| 20260510015033 | 90 | 173 | 3.0 | 6.0 | 0.00 | 0.00 | 0.00 | 10 | 1002.3 |
| 20260510014532 | 91 | 178 | 2.0 | 7.0 | 0.00 | 0.00 | 0.00 | 10 | 1002.3 |
| 20260510014032 | 91 | 206 | 2.0 | 5.0 | 0.00 | 0.00 | 0.00 | 10 | 1002.3 |
| 20260510013630 | 92 | 210 | 2.0 | 5.0 | 0.00 | 0.00 | 0.00 | 10 | 1002.2 |
| 20260510013028 | 93 | 225 | 0.0 | 4.0 | 0.00 | 0.00 | 0.00 | 10 | 1002.3 |
| 20260510012528 | 93 | 225 | 0.0 | 4.0 | 0.00 | 0.00 | 0.00 | 10 | 1002.3 |
| 20260510012028 | 93 | 227 | 0.0 | 3.0 | 0.00 | 0.00 | 0.00 | 9 | 1002.3 |
| 20260510011530 | 93 | 227 | 0.0 | 3.0 | 0.00 | 0.00 | 0.00 | 10 | 1002.3 |
| 20260510011027 | 93 | 227 | 0.0 | 3.0 | 0.00 | 0.00 | 0.00 | 10 | 1002.3 |
| 20260510010526 | 93 | 227 | 0.0 | 2.0 | 0.00 | 0.00 | 0.00 | 10 | 1002.3 |
| 20260510010026 | 93 | 227 | 0.0 | 3.0 | 0.00 | 0.00 | 0.00 | 10 | 1002.3 |
| 20260510005525 | 93 | 227 | 0.0 | 3.0 | 0.00 | 0.00 | 0.00 | 10 | 1002.3 |
| 20260510005024 | 92 | 227 | 1.0 | 3.0 | 0.00 | 0.00 | 0.00 | 10 | 1002.3 |
| 20260510004523 | 92 | 227 | 1.0 | 4.0 | 0.00 | 0.00 | 0.00 | 10 | 1002.3 |
| 20260510004023 | 91 | 227 | 0.0 | 5.0 | 0.00 | 0.00 | 0.00 | 10 | 1002.4 |
| 20260510003523 | 91 | 215 | 1.0 | 4.0 | 0.00 | 0.00 | 0.00 | 10 | 1002.5 |
| 20260510003026 | 91 | 214 | 0.0 | 4.0 | 0.00 | 0.00 | 0.00 | 10 | 1002.5 |
| 20260510002522 | 91 | 213 | 1.0 | 6.0 | 0.00 | 0.00 | 0.00 | 10 | 1002.5 |
| 20260510002022 | 92 | 242 | 2.0 | 6.0 | 0.00 | 0.00 | 0.00 | 10 | 1002.5 |
| 20260510001523 | 92 | 254 | 1.0 | 8.0 | 0.00 | 0.00 | 0.00 | 10 | 1002.5 |
| 20260510001026 | 92 | 333 | 0.0 | 3.0 | 0.00 | 0.00 | 0.00 | 10 | 1002.5 |
| 20260510000521 | 92 | 5 | 0.0 | 3.0 | 0.00 | 0.00 | 0.00 | 10 | 1002.5 |
| 20260510000021 | 91 | 9 | 1.0 | 8.0 | 0.00 | 0.00 | 0.00 | 10 | 1002.6 |
| 20260509235519 | 91 | 47 | 4.0 | 8.0 | 0.00 | 0.00 | 0.00 | 10 | 1002.6 |
| 20260509235018 | 91 | 5 | 4.0 | 6.0 | 0.00 | 0.00 | 0.00 | 10 | 1002.6 |
| 20260509234524 | 91 | 16 | 1.0 | 6.0 | 0.00 | 0.00 | 0.00 | 10 | 1002.6 |
| 20260509234018 | 91 | 30 | 3.0 | 6.0 | 0.00 | 0.00 | 0.00 | 10 | 1002.7 |
| 20260509233518 | 92 | 15 | 0.0 | 6.0 | 0.00 | 0.00 | 0.00 | 10 | 1002.7 |
| 20260509233018 | 92 | 65 | 1.0 | 8.0 | 0.00 | 0.00 | 0.00 | 10 | 1002.8 |
| 20260509232517 | 92 | 69 | 3.0 | 8.0 | 0.00 | 0.00 | 0.00 | 10 | 1002.7 |
| 20260509232017 | 92 | 32 | 1.0 | 6.0 | 0.00 | 0.00 | 0.00 | 10 | 1002.6 |
| 20260509231515 | 92 | 82 | 2.0 | 7.0 | 0.00 | 0.00 | 0.00 | 10 | 1002.8 |
| 20260509231015 | 92 | 340 | 1.0 | 10.0 | 0.00 | 0.00 | 0.00 | 10 | 1002.9 |
| 20260509230513 | 92 | 98 | 3.0 | 10.0 | 0.00 | 0.00 | 0.00 | 10 | 1003.0 |
| 20260509230013 | 92 | 94 | 4.0 | 9.0 | 0.00 | 0.00 | 0.00 | 10 | 1002.9 |
| 20260509225512 | 92 | 97 | 4.0 | 9.0 | 0.00 | 0.00 | 0.00 | 11 | 1003.0 |
| 20260509225112 | 92 | 20 | 1.0 | 9.0 | 0.00 | 0.00 | 0.00 | 11 | 1003.0 |
| 20260509224511 | 92 | 43 | 3.0 | 6.0 | 0.00 | 0.00 | 0.00 | 11 | 1003.0 |
| 20260509224010 | 92 | 28 | 3.0 | 10.0 | 0.00 | 0.00 | 0.00 | 11 | 1003.2 |
| 20260509223509 | 92 | 20 | 6.0 | 10.0 | 0.00 | 0.00 | 0.00 | 10 | 1003.3 |
| 20260509223008 | 92 | 17 | 4.0 | 9.0 | 0.00 | 0.00 | 0.00 | 10 | 1003.4 |
| 20260509222508 | 91 | 119 | 0.0 | 9.0 | 0.00 | 0.00 | 0.00 | 11 | 1003.4 |
| 20260509222007 | 92 | 67 | 5.0 | 9.0 | 0.00 | 0.00 | 0.00 | 11 | 1003.6 |
| 20260509221506 | 91 | 49 | 2.0 | 7.0 | 0.00 | 0.00 | 0.00 | 11 | 1003.6 |
| 20260509221005 | 92 | 96 | 3.0 | 7.0 | 0.00 | 0.00 | 0.00 | 10 | 1003.8 |
| 20260509220503 | 92 | 51 | 1.0 | 8.0 | 0.00 | 0.00 | 0.00 | 10 | 1003.9 |
| 20260509220003 | 92 | 174 | 0.0 | 11.0 | 0.00 | 0.00 | 0.00 | 11 | 1003.9 |
| 20260509215503 | 92 | 151 | 5.0 | 11.0 | 0.00 | 0.00 | 0.00 | 10 | 1004.1 |
| 20260509215003 | 92 | 134 | 4.0 | 11.0 | 0.00 | 0.00 | 0.00 | 10 | 1004.1 |
| 20260509214502 | 92 | 60 | 4.0 | 11.0 | 0.00 | 0.00 | 0.00 | 11 | 1004.2 |
| 20260509214005 | 92 | 117 | 2.0 | 9.0 | 0.00 | 0.00 | 0.00 | 11 | 1004.3 |
| 20260509213501 | 92 | 63 | 3.0 | 9.0 | 0.00 | 0.00 | 0.00 | 11 | 1004.3 |
| 20260509213001 | 92 | 44 | 4.0 | 8.0 | 0.00 | 0.00 | 0.00 | 11 | 1004.3 |
| 20260509212600 | 92 | 5 | 3.0 | 9.0 | 0.00 | 0.00 | 0.00 | 11 | 1004.4 |
| 20260509212059 | 92 | 360 | 2.0 | 9.0 | 0.00 | 0.00 | 0.00 | 11 | 1004.5 |
| 20260509211601 | 91 | 73 | 2.0 | 7.0 | 0.00 | 0.00 | 0.00 | 11 | 1004.6 |
| 20260509211101 | 91 | 178 | 0.0 | 8.0 | 0.00 | 0.00 | 0.00 | 11 | 1004.7 |
| 20260509210557 | 91 | 159 | 3.0 | 9.0 | 0.00 | 0.00 | 0.00 | 11 | 1004.8 |
| 20260509210114 | 91 | 148 | 3.0 | 8.0 | 0.00 | 0.00 | 0.00 | 11 | 1004.8 |
| 20260509205556 | 91 | 163 | 4.0 | 8.0 | 0.00 | 0.00 | 0.00 | 11 | 1004.9 |
| 20260509205056 | 91 | 80 | 2.0 | 5.0 | 0.00 | 0.00 | 0.00 | 11 | 1005.0 |
| 20260509204559 | 90 | 351 | 3.0 | 6.0 | 0.00 | 0.00 | 0.00 | 11 | 1005.0 |
| 20260509204056 | 90 | 13 | 2.0 | 6.0 | 0.00 | 0.00 | 0.00 | 11 | 1005.0 |
| 20260509203555 | 90 | 9 | 2.0 | 10.0 | 0.00 | 0.00 | 0.00 | 11 | 1005.1 |
| 20260509203056 | 90 | 76 | 6.0 | 10.0 | 0.00 | 0.00 | 0.00 | 11 | 1005.2 |
| 20260509202555 | 90 | 94 | 4.0 | 7.0 | 0.00 | 0.00 | 0.00 | 11 | 1005.2 |
| 20260509202055 | 90 | 95 | 2.0 | 11.0 | 0.00 | 0.00 | 0.00 | 11 | 1005.2 |
| 20260509201601 | 90 | 77 | 5.0 | 11.0 | 0.00 | 0.00 | 0.00 | 11 | 1005.3 |
| 20260509201056 | 90 | 78 | 2.0 | 11.0 | 0.00 | 0.00 | 0.00 | 11 | 1005.4 |
| 20260509200554 | 90 | 138 | 5.0 | 11.0 | 0.00 | 0.00 | 0.00 | 11 | 1005.5 |
| 20260509200103 | 90 | 60 | 2.0 | 10.0 | 0.00 | 0.00 | 0.00 | 11 | 1005.4 |
| 20260509195554 | 90 | 82 | 4.0 | 8.0 | 0.00 | 0.00 | 0.00 | 11 | 1005.5 |
| 20260509195053 | 90 | 329 | 1.0 | 7.0 | 0.00 | 0.00 | 0.00 | 11 | 1005.5 |
| 20260509194555 | 90 | 53 | 1.0 | 9.0 | 0.00 | 0.00 | 0.00 | 12 | 1005.6 |
| 20260509194053 | 90 | 56 | 2.0 | 10.0 | 0.00 | 0.00 | 0.00 | 11 | 1005.7 |
| 20260509193553 | 90 | 154 | 4.0 | 10.0 | 0.00 | 0.00 | 0.00 | 11 | 1005.7 |
| 20260509193052 | 90 | 173 | 2.0 | 7.0 | 0.00 | 0.00 | 0.00 | 11 | 1005.7 |
| 20260509192555 | 90 | 102 | 2.0 | 7.0 | 0.00 | 0.00 | 0.00 | 11 | 1005.8 |
| 20260509192052 | 89 | 26 | 2.0 | 9.0 | 0.00 | 0.00 | 0.00 | 11 | 1005.8 |
| 20260509191556 | 90 | 134 | 4.0 | 9.0 | 0.00 | 0.00 | 0.00 | 11 | 1005.9 |
| 20260509191055 | 90 | 61 | 3.0 | 8.0 | 0.00 | 0.00 | 0.00 | 11 | 1005.9 |
| 20260509190552 | 90 | 32 | 2.0 | 8.0 | 0.00 | 0.00 | 0.00 | 11 | 1006.0 |
| 20260509190104 | 90 | 336 | 4.0 | 8.0 | 0.00 | 0.00 | 0.00 | 11 | 1006.0 |
| 20260509185549 | 89 | 58 | 2.0 | 10.0 | 0.00 | 0.00 | 0.00 | 12 | 1006.1 |
| 20260509185048 | 89 | 30 | 6.0 | 10.0 | 0.00 | 0.00 | 0.00 | 12 | 1006.1 |
| 20260509184548 | 89 | 20 | 2.0 | 7.0 | 0.00 | 0.00 | 0.00 | 11 | 1006.1 |
| 20260509184048 | 89 | 12 | 2.0 | 7.0 | 0.00 | 0.00 | 0.00 | 11 | 1006.1 |
| 20260509183548 | 89 | 81 | 1.0 | 9.0 | 0.00 | 0.00 | 0.00 | 12 | 1006.2 |
| 20260509183048 | 88 | 59 | 5.0 | 9.0 | 0.00 | 0.00 | 0.00 | 12 | 1006.2 |
| 20260509182548 | 88 | 5 | 2.0 | 10.0 | 0.00 | 0.00 | 0.00 | 12 | 1006.3 |
| 20260509182047 | 88 | 165 | 4.0 | 10.0 | 0.00 | 0.00 | 0.00 | 11 | 1006.3 |
| 20260509181548 | 89 | 46 | 4.0 | 11.0 | 0.00 | 0.00 | 0.00 | 12 | 1006.4 |
| 20260509181047 | 89 | 13 | 5.0 | 12.0 | 0.00 | 0.00 | 0.00 | 11 | 1006.3 |
| 20260509180546 | 88 | 5 | 2.0 | 12.0 | 0.00 | 0.00 | 0.00 | 12 | 1006.3 |
| 20260509180051 | 89 | 98 | 5.0 | 11.0 | 0.00 | 0.00 | 0.00 | 12 | 1006.2 |
| 20260509175545 | 89 | 94 | 5.0 | 8.0 | 0.00 | 0.00 | 0.00 | 12 | 1006.2 |
| 20260509175044 | 88 | 126 | 1.0 | 9.0 | 0.00 | 0.00 | 0.00 | 12 | 1006.3 |
| 20260509174545 | 87 | 146 | 3.0 | 9.0 | 0.00 | 0.00 | 0.00 | 12 | 1006.3 |
| 20260509174043 | 88 | 79 | 3.0 | 7.0 | 0.00 | 0.00 | 0.00 | 12 | 1006.4 |
| 20260509173542 | 88 | 124 | 2.0 | 8.0 | 0.00 | 0.00 | 0.00 | 13 | 1006.3 |
| 20260509173042 | 88 | 42 | 3.0 | 8.0 | 0.00 | 0.00 | 0.00 | 13 | 1006.3 |
| 20260509172542 | 88 | 65 | 1.0 | 4.0 | 0.00 | 0.00 | 0.00 | 13 | 1006.3 |
| 20260509172041 | 87 | 68 | 1.0 | 6.0 | 0.00 | 0.00 | 0.00 | 13 | 1006.3 |
| 20260509171545 | 87 | 31 | 2.0 | 6.0 | 0.00 | 0.00 | 0.00 | 13 | 1006.3 |
| 20260509171039 | 87 | 90 | 1.0 | 5.0 | 0.00 | 0.00 | 0.00 | 14 | 1006.2 |
| 20260509170537 | 86 | 67 | 0.0 | 6.0 | 0.00 | 0.00 | 0.00 | 14 | 1006.3 |
| 20260509170037 | 86 | 55 | 2.0 | 6.0 | 0.00 | 0.00 | 0.00 | 14 | 1006.2 |
| 20260509165536 | 86 | 134 | 1.0 | 4.0 | 0.00 | 0.00 | 0.00 | 14 | 1006.2 |
| 20260509165041 | 86 | 134 | 1.0 | 3.0 | 0.00 | 0.00 | 0.00 | 15 | 1006.3 |
| 20260509164546 | 85 | 136 | 0.0 | 5.0 | 0.00 | 0.00 | 0.00 | 15 | 1006.3 |
| 20260509164035 | 85 | 136 | 2.0 | 5.0 | 0.00 | 0.00 | 0.00 | 16 | 1006.3 |
| 20260509163537 | 85 | 121 | 1.0 | 4.0 | 0.00 | 0.00 | 0.00 | 15 | 1006.2 |
| 20260509163036 | 85 | 121 | 0.0 | 6.0 | 0.00 | 0.00 | 0.00 | 15 | 1006.2 |
| 20260509162533 | 85 | 120 | 1.0 | 6.0 | 0.00 | 0.00 | 0.00 | 15 | 1006.2 |
| 20260509162033 | 84 | 114 | 0.0 | 6.0 | 0.00 | 0.00 | 0.00 | 15 | 1006.2 |
| 20260509161535 | 84 | 114 | 2.0 | 6.0 | 0.00 | 0.00 | 0.00 | 15 | 1006.2 |
| 20260509161031 | 84 | 113 | 1.0 | 6.0 | 0.00 | 0.00 | 0.00 | 16 | 1006.2 |
| 20260509160530 | 83 | 106 | 1.0 | 5.0 | 0.00 | 0.00 | 0.00 | 16 | 1006.1 |
| 20260509160030 | 83 | 142 | 3.0 | 5.0 | 0.00 | 0.00 | 0.00 | 15 | 1006.1 |
| 20260509155529 | 83 | 140 | 1.0 | 5.0 | 0.00 | 0.00 | 0.00 | 16 | 1006.2 |
| 20260509155030 | 83 | 126 | 1.0 | 5.0 | 0.00 | 0.00 | 0.00 | 17 | 1006.1 |
| 20260509154529 | 83 | 128 | 1.0 | 6.0 | 0.00 | 0.00 | 0.00 | 17 | 1006.0 |
| 20260509154029 | 83 | 94 | 2.0 | 7.0 | 0.00 | 0.00 | 0.00 | 18 | 1006.0 |
| 20260509153529 | 83 | 108 | 3.0 | 7.0 | 0.00 | 0.00 | 0.00 | 19 | 1006.0 |
| 20260509153029 | 83 | 73 | 1.0 | 4.0 | 0.00 | 0.00 | 0.00 | 19 | 1006.0 |
| 20260509152529 | 83 | 67 | 2.0 | 5.0 | 0.00 | 0.00 | 0.00 | 20 | 1006.1 |
| 20260509152029 | 83 | 96 | 2.0 | 4.0 | 0.00 | 0.00 | 0.00 | 19 | 1006.1 |
| 20260509151529 | 82 | 105 | 2.0 | 4.0 | 0.00 | 0.00 | 0.00 | 19 | 1006.1 |
| 20260509151028 | 82 | 188 | 0.0 | 3.0 | 0.00 | 0.00 | 0.00 | 21 | 1006.1 |
| 20260509150528 | 83 | 224 | 0.0 | 4.0 | 0.00 | 0.00 | 0.00 | 22 | 1006.1 |
| 20260509150034 | 84 | 230 | 1.0 | 4.0 | 0.00 | 0.00 | 0.00 | 20 | 1006.1 |
| 20260509145526 | 83 | 240 | 0.0 | 2.0 | 0.00 | 0.00 | 0.00 | 15 | 1005.9 |
| 20260509145023 | 83 | 240 | 0.0 | 0.0 | 0.00 | 0.00 | 0.00 | 16 | 1005.8 |
| 20260509144531 | 82 | 240 | 0.0 | 2.0 | 0.00 | 0.00 | 0.00 | 18 | 1005.9 |
| 20260509144023 | 82 | 240 | 0.0 | 2.0 | 0.00 | 0.00 | 0.00 | 19 | 1005.9 |
| 20260509143523 | 82 | 240 | 0.0 | 1.0 | 0.00 | 0.00 | 0.00 | 17 | 1005.9 |
| 20260509143023 | 81 | 240 | 0.0 | 1.0 | 0.00 | 0.00 | 0.00 | 18 | 1006.0 |
| 20260509142522 | 81 | 240 | 0.0 | 1.0 | 0.00 | 0.00 | 0.00 | 17 | 1006.0 |
| 20260509142022 | 81 | 240 | 0.0 | 1.0 | 0.00 | 0.00 | 0.00 | 17 | 1005.9 |
| 20260509141523 | 80 | 240 | 0.0 | 1.0 | 0.00 | 0.00 | 0.00 | 18 | 1005.8 |
| 20260509141022 | 80 | 241 | 0.0 | 2.0 | 0.00 | 0.00 | 0.00 | 18 | 1005.8 |
| 20260509140520 | 79 | 241 | 0.0 | 4.0 | 0.00 | 0.00 | 0.00 | 17 | 1005.8 |
| 20260509140020 | 78 | 241 | 1.0 | 5.0 | 0.00 | 0.00 | 0.00 | 17 | 1005.8 |
| 20260509135519 | 78 | 242 | 1.0 | 4.0 | 0.00 | 0.00 | 0.00 | 17 | 1005.7 |
| 20260509135021 | 77 | 242 | 0.0 | 5.0 | 0.00 | 0.00 | 0.00 | 18 | 1005.6 |
| 20260509134518 | 77 | 242 | 1.0 | 5.0 | 0.00 | 0.00 | 0.00 | 17 | 1005.5 |
| 20260509134117 | 77 | 268 | 1.0 | 2.0 | 0.00 | 0.00 | 0.00 | 17 | 1005.5 |
| 20260509133516 | 77 | 269 | 0.0 | 2.0 | 0.00 | 0.00 | 0.00 | 17 | 1005.4 |
| 20260509133016 | 76 | 269 | 0.0 | 2.0 | 0.00 | 0.00 | 0.00 | 17 | 1005.2 |
| 20260509132518 | 76 | 269 | 0.0 | 0.0 | 0.00 | 0.00 | 0.00 | 18 | 1005.1 |
| 20260509132014 | 76 | 269 | 0.0 | 0.0 | 0.00 | 0.00 | 0.00 | 17 | 1005.1 |
| 20260509131519 | 76 | 269 | 0.0 | 2.0 | 0.00 | 0.00 | 0.00 | 17 | 1005.0 |
| 20260509131013 | 76 | 269 | 0.0 | 2.0 | 0.00 | 0.00 | 0.00 | 17 | 1005.0 |
| 20260509130512 | 76 | 269 | 1.0 | 2.0 | 0.00 | 0.00 | 0.00 | 17 | 1005.0 |
| 20260509130016 | 75 | 269 | 0.0 | 0.0 | 0.00 | 0.00 | 0.00 | 17 | 1004.9 |
| 20260509125511 | 75 | 269 | 0.0 | 2.0 | 0.00 | 0.00 | 0.00 | 17 | 1004.9 |
| 20260509125011 | 75 | 269 | 0.0 | 3.0 | 0.00 | 0.00 | 0.00 | 17 | 1004.8 |
| 20260509124510 | 75 | 269 | 0.0 | 2.0 | 0.00 | 0.00 | 0.00 | 17 | 1004.7 |
| 20260509124008 | 75 | 269 | 0.0 | 3.0 | 0.00 | 0.00 | 0.00 | 17 | 1004.6 |